Time,TemperatureF,DewpointF,PressureIn,WindDirection,WindDirectionDegrees,WindSpeedMPH,WindSpeedGustMPH,Humidity,HourlyPrecipIn,Conditions,Clouds,dailyrainin,SoftwareType,DateUTC
2013-05-06 00:04:00,50.0,48.1,29.17,East,90,0.0,11.0,93,0.00,,,0.00,Weather View 32 v70,2013-05-06 04:04:00,
2013-05-06 00:09:00,50.0,48.1,29.18,East,90,0.0,11.0,93,0.00,,,0.00,Weather View 32 v70,2013-05-06 04:09:00,
2013-05-06 00:14:00,49.0,47.6,29.19,East,90,4.0,11.0,95,0.00,,,0.00,Weather View 32 v70,2013-05-06 04:14:00,
2013-05-06 00:19:00,49.0,48.5,29.19,ENE,67,6.0,11.0,98,0.00,,,0.00,Weather View 32 v70,2013-05-06 04:19:00,
2013-05-06 00:23:00,49.0,48.5,29.19,ENE,67,6.0,11.0,98,0.00,,,0.00,Weather View 32 v70,2013-05-06 04:23:00,
2013-05-06 00:29:00,48.0,47.7,29.19,East,90,0.0,12.0,99,0.00,,,0.00,Weather View 32 v70,2013-05-06 04:29:00,
2013-05-06 00:34:00,48.0,48.0,29.19,East,90,0.0,12.0,100,0.00,,,0.00,Weather View 32 v70,2013-05-06 04:34:00,
2013-05-06 00:39:00,48.0,48.0,29.19,ESE,112,0.0,12.0,100,0.00,,,0.00,Weather View 32 v70,2013-05-06 04:39:00,
2013-05-06 00:44:00,48.0,48.0,29.19,ENE,67,0.0,12.0,100,0.00,,,0.00,Weather View 32 v70,2013-05-06 04:44:00,
2013-05-06 00:49:00,48.0,48.0,29.19,ESE,112,0.0,12.0,100,0.00,,,0.00,Weather View 32 v70,2013-05-06 04:49:00,
2013-05-06 00:54:00,48.0,48.0,29.19,ENE,67,1.0,12.0,100,0.00,,,0.00,Weather View 32 v70,2013-05-06 04:54:00,
2013-05-06 01:00:00,48.0,48.0,29.19,East,90,0.0,12.0,100,0.00,,,0.00,Weather View 32 v70,2013-05-06 05:00:00,
2013-05-06 01:09:00,47.0,47.0,29.18,SE,135,0.0,12.0,100,0.00,,,0.00,Weather View 32 v70,2013-05-06 05:09:00,
2013-05-06 01:14:00,47.0,47.0,29.18,ESE,112,0.0,12.0,100,0.00,,,0.00,Weather View 32 v70,2013-05-06 05:14:00,
2013-05-06 01:23:00,47.0,47.0,29.19,SE,135,0.0,12.0,100,0.00,,,0.00,Weather View 32 v70,2013-05-06 05:23:00,
2013-05-06 01:29:00,47.0,47.0,29.18,SE,135,0.0,10.0,100,0.00,,,0.00,Weather View 32 v70,2013-05-06 05:29:00,
2013-05-06 01:39:00,48.0,48.0,29.18,SE,135,5.0,10.0,100,0.00,,,0.00,Weather View 32 v70,2013-05-06 05:39:00,
2013-05-06 01:44:00,48.0,48.0,29.18,SE,135,2.0,9.0,100,0.00,,,0.00,Weather View 32 v70,2013-05-06 05:44:00,
2013-05-06 01:49:00,48.0,48.0,29.18,ESE,112,3.0,9.0,100,0.00,,,0.00,Weather View 32 v70,2013-05-06 05:49:00,
2013-05-06 01:59:00,48.0,48.0,29.17,ESE,112,5.0,10.0,100,0.00,,,0.00,Weather View 32 v70,2013-05-06 05:59:00,
2013-05-06 02:04:00,48.0,48.0,29.17,SE,135,5.0,10.0,100,0.00,,,0.00,Weather View 32 v70,2013-05-06 06:04:00,
2013-05-06 02:14:00,48.0,48.0,29.17,East,90,2.0,10.0,100,0.00,,,0.00,Weather View 32 v70,2013-05-06 06:14:00,
2013-05-06 02:19:00,47.0,47.0,29.17,ESE,112,0.0,10.0,100,0.00,,,0.00,Weather View 32 v70,2013-05-06 06:19:00,
2013-05-06 02:24:00,46.0,46.0,29.18,ESE,112,0.0,10.0,100,0.00,,,0.00,Weather View 32 v70,2013-05-06 06:24:00,
2013-05-06 02:34:00,46.0,46.0,29.18,ESE,112,0.0,10.0,100,0.00,,,0.00,Weather View 32 v70,2013-05-06 06:34:00,
2013-05-06 02:39:00,45.0,45.0,29.18,ESE,112,0.0,10.0,100,0.00,,,0.00,Weather View 32 v70,2013-05-06 06:39:00,
2013-05-06 02:49:00,45.0,45.0,29.18,ESE,112,0.0,10.0,100,0.00,,,0.00,Weather View 32 v70,2013-05-06 06:49:00,
2013-05-06 02:54:00,46.0,46.0,29.18,ESE,112,0.0,10.0,100,0.00,,,0.00,Weather View 32 v70,2013-05-06 06:54:00,
2013-05-06 02:59:00,46.0,46.0,29.18,ESE,112,0.0,10.0,100,0.00,,,0.00,Weather View 32 v70,2013-05-06 06:59:00,
2013-05-06 03:09:00,46.0,46.0,29.17,ESE,112,0.0,4.0,100,0.00,,,0.00,Weather View 32 v70,2013-05-06 07:09:00,
2013-05-06 03:14:00,46.0,46.0,29.17,ESE,112,0.0,4.0,100,0.00,,,0.00,Weather View 32 v70,2013-05-06 07:14:00,
2013-05-06 03:25:00,46.0,46.0,29.18,ESE,112,0.0,2.0,100,0.00,,,0.00,Weather View 32 v70,2013-05-06 07:25:00,
2013-05-06 03:34:00,46.0,46.0,29.17,ESE,112,0.0,2.0,100,0.00,,,0.00,Weather View 32 v70,2013-05-06 07:34:00,
2013-05-06 03:44:00,45.0,45.0,29.18,ESE,112,0.0,2.0,100,0.00,,,0.00,Weather View 32 v70,2013-05-06 07:44:00,
2013-05-06 03:49:00,45.0,45.0,29.18,East,90,1.0,2.0,100,0.00,,,0.00,Weather View 32 v70,2013-05-06 07:49:00,
2013-05-06 03:55:00,45.0,45.0,29.18,East,90,0.0,2.0,100,0.00,,,0.00,Weather View 32 v70,2013-05-06 07:55:00,
2013-05-06 04:04:00,45.0,45.0,29.18,East,90,2.0,6.0,100,0.00,,,0.00,Weather View 32 v70,2013-05-06 08:04:00,
2013-05-06 04:09:00,46.0,46.0,29.17,East,90,0.0,6.0,100,0.00,,,0.00,Weather View 32 v70,2013-05-06 08:09:00,
2013-05-06 04:19:00,46.0,46.0,29.17,East,90,0.0,6.0,100,0.00,,,0.00,Weather View 32 v70,2013-05-06 08:19:00,
2013-05-06 04:25:00,45.0,45.0,29.17,East,90,0.0,6.0,100,0.00,,,0.00,Weather View 32 v70,2013-05-06 08:25:00,
2013-05-06 04:34:00,45.0,45.0,29.18,NE,45,0.0,6.0,100,0.00,,,0.00,Weather View 32 v70,2013-05-06 08:34:00,
2013-05-06 04:39:00,45.0,45.0,29.18,East,90,0.0,6.0,100,0.00,,,0.00,Weather View 32 v70,2013-05-06 08:39:00,
2013-05-06 04:44:00,45.0,45.0,29.17,ENE,67,0.0,6.0,100,0.00,,,0.00,Weather View 32 v70,2013-05-06 08:44:00,
2013-05-06 04:54:00,45.0,45.0,29.17,East,90,0.0,7.0,100,0.00,,,0.00,Weather View 32 v70,2013-05-06 08:54:00,
2013-05-06 04:59:00,45.0,45.0,29.17,East,90,1.0,7.0,100,0.00,,,0.00,Weather View 32 v70,2013-05-06 08:59:00,
2013-05-06 05:09:00,45.0,45.0,29.17,ENE,67,2.0,8.0,100,0.00,,,0.00,Weather View 32 v70,2013-05-06 09:09:00,
2013-05-06 05:14:00,45.0,45.0,29.17,ENE,67,7.0,8.0,100,0.00,,,0.00,Weather View 32 v70,2013-05-06 09:14:00,
2013-05-06 05:19:00,44.0,44.0,29.17,ESE,112,0.0,8.0,100,0.00,,,0.00,Weather View 32 v70,2013-05-06 09:19:00,
2013-05-06 05:26:00,44.0,44.0,29.18,ENE,67,0.0,8.0,100,0.00,,,0.00,Weather View 32 v70,2013-05-06 09:26:00,
2013-05-06 05:34:00,44.0,44.0,29.19,East,90,0.0,8.0,100,0.00,,,0.00,Weather View 32 v70,2013-05-06 09:34:00,
2013-05-06 05:44:00,44.0,44.0,29.19,ENE,67,2.0,8.0,100,0.00,,,0.00,Weather View 32 v70,2013-05-06 09:44:00,
2013-05-06 05:49:00,44.0,44.0,29.19,NE,45,6.0,8.0,100,0.00,,,0.00,Weather View 32 v70,2013-05-06 09:49:00,
2013-05-06 05:54:00,44.0,44.0,29.19,NNW,337,0.0,8.0,100,0.00,,,0.00,Weather View 32 v70,2013-05-06 09:54:00,
2013-05-06 06:04:00,43.0,43.0,29.19,NW,315,0.0,8.0,100,0.00,,,0.00,Weather View 32 v70,2013-05-06 10:04:00,
2013-05-06 06:09:00,43.0,43.0,29.19,NE,45,0.0,8.0,100,0.00,,,0.00,Weather View 32 v70,2013-05-06 10:09:00,
2013-05-06 06:19:00,44.0,44.0,29.19,NE,45,4.0,8.0,100,0.00,,,0.00,Weather View 32 v70,2013-05-06 10:19:00,
2013-05-06 06:24:00,44.0,44.0,29.19,NE,45,6.0,9.0,100,0.00,,,0.00,Weather View 32 v70,2013-05-06 10:24:00,
2013-05-06 06:34:00,44.0,44.0,29.18,NE,45,1.0,9.0,100,0.00,,,0.00,Weather View 32 v70,2013-05-06 10:34:00,
2013-05-06 06:39:00,45.0,45.0,29.19,ENE,67,5.0,9.0,100,0.00,,,0.00,Weather View 32 v70,2013-05-06 10:39:00,
2013-05-06 06:44:00,45.0,45.0,29.19,NE,45,5.0,10.0,100,0.00,,,0.00,Weather View 32 v70,2013-05-06 10:44:00,
2013-05-06 06:54:00,45.0,45.0,29.19,ENE,67,4.0,10.0,100,0.00,,,0.00,Weather View 32 v70,2013-05-06 10:54:00,
2013-05-06 06:59:00,45.0,45.0,29.19,ENE,67,4.0,10.0,100,0.00,,,0.00,Weather View 32 v70,2013-05-06 10:59:00,
2013-05-06 07:09:00,45.0,45.0,29.19,NE,45,2.0,10.0,100,0.00,,,0.00,Weather View 32 v70,2013-05-06 11:09:00,
2013-05-06 07:14:00,45.0,45.0,29.20,NE,45,3.0,12.0,100,0.00,,,0.00,Weather View 32 v70,2013-05-06 11:14:00,
2013-05-06 07:24:00,45.0,45.0,29.19,East,90,1.0,12.0,100,0.00,,,0.00,Weather View 32 v70,2013-05-06 11:24:00,
2013-05-06 07:29:00,45.0,45.0,29.20,NE,45,1.0,12.0,100,0.00,,,0.00,Weather View 32 v70,2013-05-06 11:29:00,
2013-05-06 07:34:00,46.0,46.0,29.20,NE,45,0.0,12.0,100,0.00,,,0.00,Weather View 32 v70,2013-05-06 11:34:00,
2013-05-06 07:44:00,45.0,45.0,29.20,North,360,3.0,12.0,100,0.00,,,0.00,Weather View 32 v70,2013-05-06 11:44:00,
2013-05-06 07:49:00,46.0,46.0,29.20,ENE,67,7.0,12.0,100,0.00,,,0.00,Weather View 32 v70,2013-05-06 11:49:00,
2013-05-06 07:54:00,45.0,45.0,29.20,ENE,67,3.0,12.0,100,0.00,,,0.00,Weather View 32 v70,2013-05-06 11:54:00,
2013-05-06 08:04:00,46.0,46.0,29.20,NE,45,3.0,12.0,100,0.00,,,0.00,Weather View 32 v70,2013-05-06 12:04:00,
2013-05-06 08:09:00,45.0,45.0,29.20,ENE,67,2.0,12.0,100,0.00,,,0.00,Weather View 32 v70,2013-05-06 12:09:00,
2013-05-06 08:19:00,45.0,45.0,29.20,ENE,67,2.0,12.0,100,0.00,,,0.00,Weather View 32 v70,2013-05-06 12:19:00,
2013-05-06 08:24:00,46.0,46.0,29.20,ENE,67,3.0,10.0,100,0.00,,,0.00,Weather View 32 v70,2013-05-06 12:24:00,
2013-05-06 08:34:00,46.0,46.0,29.20,North,360,0.0,10.0,100,0.00,,,0.00,Weather View 32 v70,2013-05-06 12:34:00,
2013-05-06 08:39:00,46.0,46.0,29.20,NW,315,2.0,10.0,100,0.00,,,0.00,Weather View 32 v70,2013-05-06 12:39:00,
2013-05-06 08:49:00,46.0,46.0,29.19,WNW,292,1.0,10.0,100,0.00,,,0.00,Weather View 32 v70,2013-05-06 12:49:00,
2013-05-06 08:54:00,46.0,46.0,29.19,WNW,292,4.0,10.0,100,0.00,,,0.00,Weather View 32 v70,2013-05-06 12:54:00,
2013-05-06 08:59:00,47.0,47.0,29.19,NW,315,1.0,10.0,100,0.00,,,0.00,Weather View 32 v70,2013-05-06 12:59:00,
2013-05-06 09:09:00,47.0,47.0,29.19,NW,315,2.0,10.0,100,0.00,,,0.00,Weather View 32 v70,2013-05-06 13:09:00,
2013-05-06 09:14:00,47.0,47.0,29.19,NW,315,0.0,10.0,100,0.00,,,0.00,Weather View 32 v70,2013-05-06 13:14:00,
2013-05-06 09:24:00,48.0,48.0,29.18,North,360,0.0,9.0,100,0.00,,,0.00,Weather View 32 v70,2013-05-06 13:24:00,
2013-05-06 09:29:00,48.0,48.0,29.18,North,360,5.0,10.0,100,0.00,,,0.00,Weather View 32 v70,2013-05-06 13:29:00,
2013-05-06 09:34:00,48.0,48.0,29.19,NE,45,0.0,10.0,100,0.00,,,0.00,Weather View 32 v70,2013-05-06 13:34:00,
2013-05-06 09:44:00,48.0,48.0,29.19,NE,45,2.0,10.0,100,0.00,,,0.00,Weather View 32 v70,2013-05-06 13:44:00,
2013-05-06 09:49:00,48.0,48.0,29.18,NNE,22,2.0,10.0,100,0.00,,,0.00,Weather View 32 v70,2013-05-06 13:49:00,
2013-05-06 09:54:00,48.0,48.0,29.18,NE,45,7.0,11.0,100,0.00,,,0.00,Weather View 32 v70,2013-05-06 13:54:00,
2013-05-06 10:04:00,47.0,47.0,29.19,NNE,22,7.0,12.0,100,0.00,,,0.00,Weather View 32 v70,2013-05-06 14:04:00,
2013-05-06 10:09:00,47.0,47.0,29.19,NNE,22,4.0,12.0,100,0.00,,,0.00,Weather View 32 v70,2013-05-06 14:09:00,
2013-05-06 10:19:00,48.0,48.0,29.19,East,90,0.0,12.0,100,0.00,,,0.00,Weather View 32 v70,2013-05-06 14:19:00,
2013-05-06 10:24:00,47.0,47.0,29.19,NW,315,0.0,12.0,100,0.00,,,0.00,Weather View 32 v70,2013-05-06 14:24:00,
2013-05-06 10:29:00,48.0,48.0,29.19,ENE,67,1.0,12.0,100,0.00,,,0.00,Weather View 32 v70,2013-05-06 14:29:00,
2013-05-06 10:39:00,49.0,49.0,29.18,North,360,6.0,12.0,100,0.00,,,0.00,Weather View 32 v70,2013-05-06 14:39:00,
2013-05-06 10:44:00,49.0,49.0,29.18,North,360,8.0,12.0,100,0.00,,,0.00,Weather View 32 v70,2013-05-06 14:44:00,
2013-05-06 10:54:00,49.0,49.0,29.17,NNE,22,6.0,12.0,100,0.00,,,0.00,Weather View 32 v70,2013-05-06 14:54:00,
2013-05-06 10:59:00,50.0,50.0,29.17,NE,45,7.0,12.0,100,0.00,,,0.00,Weather View 32 v70,2013-05-06 14:59:00,
2013-05-06 11:04:00,50.0,50.0,29.17,NE,45,3.0,14.0,100,0.00,,,0.00,Weather View 32 v70,2013-05-06 15:04:00,
2013-05-06 11:14:00,50.0,50.0,29.17,East,90,2.0,14.0,100,0.00,,,0.00,Weather View 32 v70,2013-05-06 15:14:00,
2013-05-06 11:19:00,51.0,51.0,29.17,NNE,22,7.0,14.0,100,0.00,,,0.00,Weather View 32 v70,2013-05-06 15:19:00,
2013-05-06 11:29:00,51.0,51.0,29.17,NE,45,2.0,14.0,100,0.00,,,0.00,Weather View 32 v70,2013-05-06 15:29:00,
2013-05-06 11:34:00,51.0,51.0,29.17,NE,45,1.0,14.0,100,0.00,,,0.00,Weather View 32 v70,2013-05-06 15:34:00,
2013-05-06 11:39:00,52.0,52.0,29.17,ENE,67,1.0,14.0,100,0.00,,,0.00,Weather View 32 v70,2013-05-06 15:39:00,
2013-05-06 11:49:00,54.0,54.0,29.15,NNW,337,0.0,14.0,100,0.00,,,0.00,Weather View 32 v70,2013-05-06 15:49:00,
2013-05-06 11:54:00,56.0,56.0,29.13,NW,315,0.0,14.0,100,0.00,,,0.00,Weather View 32 v70,2013-05-06 15:54:00,
2013-05-06 12:04:00,55.0,53.9,29.13,NE,45,7.0,13.0,96,0.00,,,0.00,Weather View 32 v70,2013-05-06 16:04:00,
2013-05-06 12:09:00,54.0,54.0,29.14,NE,45,9.0,13.0,100,0.00,,,0.00,Weather View 32 v70,2013-05-06 16:09:00,
2013-05-06 12:14:00,54.0,54.0,29.14,ENE,67,5.0,13.0,100,0.00,,,0.00,Weather View 32 v70,2013-05-06 16:14:00,
2013-05-06 12:24:00,54.0,54.0,29.14,East,90,2.0,13.0,100,0.00,,,0.00,Weather View 32 v70,2013-05-06 16:24:00,
2013-05-06 12:29:00,54.0,54.0,29.14,ENE,67,2.0,13.0,100,0.00,,,0.00,Weather View 32 v70,2013-05-06 16:29:00,
2013-05-06 12:34:00,54.0,54.0,29.14,ENE,67,0.0,13.0,100,0.00,,,0.00,Weather View 32 v70,2013-05-06 16:34:00,
2013-05-06 12:44:00,54.0,54.0,29.14,ENE,67,3.0,13.0,100,0.00,,,0.00,Weather View 32 v70,2013-05-06 16:44:00,
2013-05-06 12:49:00,53.0,53.0,29.14,ENE,67,7.0,13.0,100,0.00,,,0.00,Weather View 32 v70,2013-05-06 16:49:00,
2013-05-06 12:59:00,54.0,54.0,29.13,ENE,67,5.0,16.0,100,0.00,,,0.00,Weather View 32 v70,2013-05-06 16:59:00,
2013-05-06 13:04:00,54.0,54.0,29.13,NE,45,6.0,16.0,100,0.00,,,0.00,Weather View 32 v70,2013-05-06 17:04:00,
2013-05-06 13:09:00,54.0,54.0,29.13,NE,45,4.0,16.0,100,0.00,,,0.00,Weather View 32 v70,2013-05-06 17:09:00,
2013-05-06 13:19:00,55.0,55.0,29.12,East,90,1.0,16.0,100,0.00,,,0.00,Weather View 32 v70,2013-05-06 17:19:00,
2013-05-06 13:24:00,55.0,55.0,29.12,East,90,1.0,16.0,100,0.00,,,0.00,Weather View 32 v70,2013-05-06 17:24:00,
2013-05-06 13:30:00,55.0,55.0,29.12,ENE,67,0.0,16.0,100,0.00,,,0.00,Weather View 32 v70,2013-05-06 17:30:00,
2013-05-06 13:39:00,55.0,55.0,29.12,ENE,67,1.0,16.0,100,0.00,,,0.00,Weather View 32 v70,2013-05-06 17:39:00,
2013-05-06 13:44:00,54.0,54.0,29.12,ENE,67,8.0,16.0,100,0.00,,,0.00,Weather View 32 v70,2013-05-06 17:44:00,
2013-05-06 13:54:00,54.0,54.0,29.11,NE,45,14.0,16.0,100,0.00,,,0.00,Weather View 32 v70,2013-05-06 17:54:00,
2013-05-06 13:59:00,55.0,55.0,29.11,ENE,67,5.0,14.0,100,0.00,,,0.00,Weather View 32 v70,2013-05-06 17:59:00,
2013-05-06 14:09:00,55.0,55.0,29.11,NE,45,4.0,14.0,100,0.00,,,0.00,Weather View 32 v70,2013-05-06 18:09:00,
2013-05-06 14:14:00,55.0,55.0,29.11,ENE,67,6.0,14.0,100,0.00,,,0.00,Weather View 32 v70,2013-05-06 18:14:00,
2013-05-06 14:19:00,55.0,55.0,29.11,NE,45,0.0,14.0,100,0.00,,,0.00,Weather View 32 v70,2013-05-06 18:19:00,
2013-05-06 14:29:00,55.0,55.0,29.10,North,360,2.0,14.0,100,0.00,,,0.00,Weather View 32 v70,2013-05-06 18:29:00,
2013-05-06 14:34:00,56.0,56.0,29.10,East,90,3.0,14.0,100,0.00,,,0.00,Weather View 32 v70,2013-05-06 18:34:00,
2013-05-06 14:44:00,56.0,56.0,29.09,ENE,67,0.0,14.0,100,0.00,,,0.00,Weather View 32 v70,2013-05-06 18:44:00,
2013-05-06 14:49:00,56.0,56.0,29.09,ENE,67,10.0,14.0,100,0.00,,,0.00,Weather View 32 v70,2013-05-06 18:49:00,
2013-05-06 14:54:00,56.0,56.0,29.09,ENE,67,3.0,14.0,100,0.00,,,0.00,Weather View 32 v70,2013-05-06 18:54:00,
2013-05-06 15:04:00,57.0,57.0,29.09,ENE,67,2.0,13.0,100,0.00,,,0.00,Weather View 32 v70,2013-05-06 19:04:00,
2013-05-06 15:09:00,57.0,56.7,29.09,ENE,67,4.0,13.0,99,0.00,,,0.00,Weather View 32 v70,2013-05-06 19:09:00,
2013-05-06 15:14:00,57.0,56.7,29.09,NE,45,3.0,13.0,99,0.00,,,0.00,Weather View 32 v70,2013-05-06 19:14:00,
2013-05-06 15:24:00,58.0,57.7,29.07,NE,45,5.0,13.0,99,0.00,,,0.00,Weather View 32 v70,2013-05-06 19:24:00,
2013-05-06 15:29:00,57.0,56.7,29.07,ENE,67,4.0,13.0,99,0.00,,,0.00,Weather View 32 v70,2013-05-06 19:29:00,
2013-05-06 15:39:00,57.0,56.7,29.07,NE,45,5.0,13.0,99,0.00,,,0.00,Weather View 32 v70,2013-05-06 19:39:00,
2013-05-06 15:44:00,58.0,57.7,29.07,ENE,67,3.0,13.0,99,0.00,,,0.00,Weather View 32 v70,2013-05-06 19:44:00,
2013-05-06 15:54:00,58.0,57.7,29.06,ENE,67,6.0,13.0,99,0.00,,,0.00,Weather View 32 v70,2013-05-06 19:54:00,
2013-05-06 15:59:00,58.0,57.4,29.06,NNE,22,6.0,13.0,98,0.00,,,0.00,Weather View 32 v70,2013-05-06 19:59:00,
2013-05-06 16:04:00,58.0,57.7,29.06,NE,45,8.0,13.0,99,0.00,,,0.00,Weather View 32 v70,2013-05-06 20:04:00,
2013-05-06 16:14:00,58.0,57.4,29.05,ENE,67,7.0,13.0,98,0.00,,,0.00,Weather View 32 v70,2013-05-06 20:14:00,
2013-05-06 16:19:00,58.0,57.7,29.05,East,90,4.0,13.0,99,0.00,,,0.00,Weather View 32 v70,2013-05-06 20:19:00,
2013-05-06 16:24:00,58.0,57.7,29.05,NE,45,2.0,13.0,99,0.00,,,0.00,Weather View 32 v70,2013-05-06 20:24:00,
2013-05-06 16:32:00,58.0,57.7,29.05,East,90,6.0,13.0,99,0.00,,,0.00,Weather View 32 v70,2013-05-06 20:32:00,
2013-05-06 16:39:00,58.0,58.0,29.05,East,90,1.0,13.0,100,0.00,,,0.00,Weather View 32 v70,2013-05-06 20:39:00,
2013-05-06 16:49:00,57.0,57.0,29.05,East,90,0.0,13.0,100,0.00,,,0.00,Weather View 32 v70,2013-05-06 20:49:00,
2013-05-06 16:54:00,57.0,57.0,29.05,ENE,67,2.0,13.0,100,0.00,,,0.00,Weather View 32 v70,2013-05-06 20:54:00,
2013-05-06 16:59:00,57.0,57.0,29.06,ENE,67,2.0,13.0,100,0.00,,,0.00,Weather View 32 v70,2013-05-06 20:59:00,
2013-05-06 17:09:00,57.0,57.0,29.06,East,90,1.0,13.0,100,0.00,,,0.00,Weather View 32 v70,2013-05-06 21:09:00,
2013-05-06 17:14:00,57.0,57.0,29.06,East,90,0.0,13.0,100,0.00,,,0.00,Weather View 32 v70,2013-05-06 21:14:00,
2013-05-06 17:24:00,57.0,57.0,29.05,East,90,0.0,13.0,100,0.00,,,0.00,Weather View 32 v70,2013-05-06 21:24:00,
2013-05-06 17:29:00,58.0,58.0,29.05,ENE,67,2.0,13.0,100,0.00,,,0.00,Weather View 32 v70,2013-05-06 21:29:00,
2013-05-06 17:34:00,58.0,58.0,29.05,ESE,112,0.0,13.0,100,0.00,,,0.00,Weather View 32 v70,2013-05-06 21:34:00,
2013-05-06 17:44:00,58.0,58.0,29.05,NE,45,6.0,13.0,100,0.00,,,0.00,Weather View 32 v70,2013-05-06 21:44:00,
2013-05-06 17:49:00,58.0,58.0,29.05,ENE,67,3.0,13.0,100,0.00,,,0.00,Weather View 32 v70,2013-05-06 21:49:00,
2013-05-06 18:09:00,58.0,58.0,29.05,East,90,3.0,13.0,100,0.00,,,0.00,Weather View 32 v70,2013-05-06 22:09:00,
2013-05-06 18:14:00,59.0,59.0,29.04,East,90,6.0,13.0,100,0.00,,,0.00,Weather View 32 v70,2013-05-06 22:14:00,
2013-05-06 18:24:00,59.0,59.0,29.04,ENE,67,0.0,13.0,100,0.00,,,0.00,Weather View 32 v70,2013-05-06 22:24:00,
2013-05-06 18:33:00,59.0,59.0,29.04,ESE,112,0.0,13.0,100,0.00,,,0.00,Weather View 32 v70,2013-05-06 22:33:00,
2013-05-06 18:39:00,59.0,59.0,29.04,South,180,0.0,13.0,100,0.00,,,0.00,Weather View 32 v70,2013-05-06 22:39:00,
2013-05-06 18:44:00,59.0,59.0,29.04,ENE,67,0.0,13.0,100,0.00,,,0.00,Weather View 32 v70,2013-05-06 22:44:00,
2013-05-06 18:54:00,59.0,59.0,29.04,ESE,112,0.0,13.0,100,0.00,,,0.00,Weather View 32 v70,2013-05-06 22:54:00,
2013-05-06 19:04:00,59.0,59.0,29.04,East,90,3.0,13.0,100,0.00,,,0.00,Weather View 32 v70,2013-05-06 23:04:00,
2013-05-06 19:09:00,59.0,59.0,29.04,ENE,67,0.0,13.0,100,0.00,,,0.00,Weather View 32 v70,2013-05-06 23:09:00,
2013-05-06 19:19:00,59.0,59.0,29.04,ESE,112,0.0,13.0,100,0.00,,,0.00,Weather View 32 v70,2013-05-06 23:19:00,
2013-05-06 19:29:00,59.0,59.0,29.04,East,90,0.0,13.0,100,0.00,,,0.00,Weather View 32 v70,2013-05-06 23:29:00,
2013-05-06 19:39:00,59.0,59.0,29.04,ESE,112,2.0,13.0,100,0.00,,,0.00,Weather View 32 v70,2013-05-06 23:39:00,
2013-05-06 19:44:00,59.0,59.0,29.04,ENE,67,0.0,13.0,100,0.00,,,0.00,Weather View 32 v70,2013-05-06 23:44:00,
2013-05-06 19:54:00,59.0,59.0,29.05,NE,45,0.0,9.0,100,0.00,,,0.00,Weather View 32 v70,2013-05-06 23:54:00,
2013-05-06 20:04:00,59.0,59.0,29.05,ENE,67,0.0,8.0,100,0.00,,,0.00,Weather View 32 v70,2013-05-07 00:04:00,
2013-05-06 20:14:00,59.0,59.0,29.05,East,90,0.0,8.0,100,0.00,,,0.00,Weather View 32 v70,2013-05-07 00:14:00,
2013-05-06 20:19:00,59.0,59.0,29.05,ENE,67,0.0,8.0,100,0.00,,,0.00,Weather View 32 v70,2013-05-07 00:19:00,
2013-05-06 20:29:00,59.0,59.0,29.05,ENE,67,0.0,8.0,100,0.00,,,0.00,Weather View 32 v70,2013-05-07 00:29:00,
2013-05-06 20:39:00,59.0,59.0,29.05,SSE,157,0.0,8.0,100,0.00,,,0.00,Weather View 32 v70,2013-05-07 00:39:00,
2013-05-06 20:44:00,59.0,59.0,29.05,East,90,0.0,8.0,100,0.00,,,0.00,Weather View 32 v70,2013-05-07 00:44:00,
2013-05-06 20:54:00,59.0,59.0,29.05,East,90,0.0,8.0,100,0.00,,,0.00,Weather View 32 v70,2013-05-07 00:54:00,
2013-05-06 21:04:00,59.0,59.0,29.05,East,90,0.0,8.0,100,0.00,,,0.00,Weather View 32 v70,2013-05-07 01:04:00,
2013-05-06 21:14:00,59.0,59.0,29.05,ENE,67,0.0,8.0,100,0.00,,,0.00,Weather View 32 v70,2013-05-07 01:14:00,
2013-05-06 21:19:00,59.0,59.0,29.05,East,90,0.0,8.0,100,0.00,,,0.00,Weather View 32 v70,2013-05-07 01:19:00,
2013-05-06 21:29:00,59.0,59.0,29.06,East,90,0.0,8.0,100,0.00,,,0.00,Weather View 32 v70,2013-05-07 01:29:00,
2013-05-06 21:39:00,58.0,58.0,29.06,East,90,0.0,6.0,100,0.00,,,0.00,Weather View 32 v70,2013-05-07 01:39:00,
2013-05-06 21:49:00,58.0,58.0,29.07,ENE,67,0.0,6.0,100,0.00,,,0.00,Weather View 32 v70,2013-05-07 01:49:00,
2013-05-06 21:54:00,58.0,58.0,29.07,ENE,67,0.0,6.0,100,0.00,,,0.00,Weather View 32 v70,2013-05-07 01:54:00,
2013-05-06 22:04:00,58.0,58.0,29.07,ENE,67,0.0,0.0,100,0.00,,,0.00,Weather View 32 v70,2013-05-07 02:04:00,
2013-05-06 22:14:00,58.0,58.0,29.07,ENE,67,0.0,6.0,100,0.00,,,0.00,Weather View 32 v70,2013-05-07 02:14:00,
2013-05-06 22:24:00,57.0,57.0,29.08,ENE,67,0.0,6.0,100,0.00,,,0.00,Weather View 32 v70,2013-05-07 02:24:00,
2013-05-06 22:29:00,57.0,57.0,29.08,East,90,0.0,7.0,100,0.00,,,0.00,Weather View 32 v70,2013-05-07 02:29:00,
2013-05-06 22:35:00,57.0,57.0,29.08,SE,135,0.0,7.0,100,0.00,,,0.00,Weather View 32 v70,2013-05-07 02:35:00,
2013-05-06 22:44:00,57.0,57.0,29.07,ESE,112,0.0,7.0,100,0.00,,,0.00,Weather View 32 v70,2013-05-07 02:44:00,
2013-05-06 22:49:00,58.0,58.0,29.06,ESE,112,0.0,7.0,100,0.00,,,0.00,Weather View 32 v70,2013-05-07 02:49:00,
2013-05-06 22:59:00,58.0,58.0,29.06,SE,135,0.0,7.0,100,0.00,,,0.00,Weather View 32 v70,2013-05-07 02:59:00,
2013-05-06 23:04:00,58.0,58.0,29.06,East,90,0.0,7.0,100,0.00,,,0.00,Weather View 32 v70,2013-05-07 03:04:00,
2013-05-06 23:09:00,58.0,58.0,29.06,East,90,2.0,7.0,100,0.00,,,0.00,Weather View 32 v70,2013-05-07 03:09:00,
2013-05-06 23:19:00,57.0,57.0,29.06,ESE,112,0.0,7.0,100,0.00,,,0.00,Weather View 32 v70,2013-05-07 03:19:00,
2013-05-06 23:24:00,57.0,57.0,29.07,SE,135,0.0,7.0,100,0.00,,,0.00,Weather View 32 v70,2013-05-07 03:24:00,
2013-05-06 23:34:00,57.0,57.0,29.06,ESE,112,0.0,7.0,100,0.00,,,0.00,Weather View 32 v70,2013-05-07 03:34:00,
2013-05-06 23:44:00,57.0,57.0,29.06,ESE,112,0.0,7.0,100,0.00,,,0.00,Weather View 32 v70,2013-05-07 03:44:00,
2013-05-06 23:54:00,57.0,57.0,29.06,ESE,112,0.0,7.0,100,0.00,,,0.00,Weather View 32 v70,2013-05-07 03:54:00,
2013-05-06 23:59:00,57.0,57.0,29.06,ENE,67,0.0,7.0,100,0.00,,,0.00,Weather View 32 v70,2013-05-07 03:59:00,